Погода в Малине

Украина / Житомирская область     50°46′04″N   29°14′26″E
темп.,
°C
ветер,
м/с
пор.,
м/с
влажн.,
%
обл.,
%
осадки,
мм/ч
давл.,
гПа
погр.,
м
20 января, чт
чт2023:00−2юз4894100 0.0 1018291
02:00−2юз4895100 0.0 1016232
05:00−2ююз51094100 0.0 1013329
08:00−3юз61482100 0.0 1011367
11:00−1юз71574100 0.0 1009590
14:00+1юз71375100 0.0 1007949
17:000зюз61289100 0.1 1005637
20:000юз5118898 0.1 1004750
21 января, пт
пт2123:00−1з81382100 0.0 1004831
02:00−3з71181100 0.0 1005863
05:00−4з7127921 0.0 1004715
08:00−3з81587100 0.1 1004945
11:00−3з111984100 0.2 10041269
14:00−2з111877100 0.3 10031260
17:00−2з10178296 0.0 10041078
20:00−3з9169298 0.1 1004965
22 января, сб
сб2223:00−3зсз61388100 0.1 1005694
02:00−4з61287100 0.1 1006614
05:00−4з6128892 0.1 1006564
08:00−4з5108866 0.3 1007432
11:00−3зсз5882100 0.1 1008727
14:00−2сз5774100 0.3 1009957
17:00−4сз499399 0.2 1011475
20:00−5ссз51091100 0.3 1014577
23 января, вс
вс2323:00−6ссз599289 0.1 1016447
02:00−6ссз489378 0.1 1018419
05:00−8ссз389692 0.1 1019305
08:00−7ссз1495100 0.2 1020203
11:00−5св2389100 0.5 1021392
14:00−5св4577100 0.6 1022759
17:00−7св4789100 0.0 1025337
20:00−8св489380 0.1 1027363
24 января, пн
пн2423:00−9с369679 0.1 1028193
02:00−10с369688 0.1 1029181
05:00−11с369692 0.1 1030202
08:00−12с369778 0.1 1030164
11:00−9с358674 0.0 1030256
14:00−7ссз468293 0.0 1029424
17:00−9сз37935 0.0 1029134
20:00−11сз37965 0.0 1030142